Time_in_sec,gx,gy,gz
1314274903.45647502,0.00460962,0.02005505,-0.99978825
1314274903.49549508,0.00439445,0.02020028,-0.99978630
1314274903.55549145,0.00422637,0.02025320,-0.99978595
1314274903.60443616,0.00412955,0.02030447,-0.99978531
1314274903.65546799,0.00389229,0.02020067,-0.99978837
1314274903.70746779,0.00394355,0.01983860,-0.99979542
1314274903.75645304,0.00399136,0.02003807,-0.99979125
1314274903.80747795,0.00401247,0.02007913,-0.99979034
1314274903.85647655,0.00389402,0.02034141,-0.99978551
1314274903.90453315,0.00379645,0.02047133,-0.99978323
1314274903.95567107,0.00374148,0.02025468,-0.99978785
1314274904.00444555,0.00379439,0.02049824,-0.99978269
1314274904.05650830,0.00359048,0.02028215,-0.99978785
1314274904.10447741,0.00356040,0.02040720,-0.99978541
1314274904.15649462,0.00364220,0.02037745,-0.99978572
1314274904.20467949,0.00368215,0.02040350,-0.99978505
1314274904.25646830,0.00393287,0.02047408,-0.99978265
1314274904.30445933,0.00363253,0.02057574,-0.99978170
1314274904.35558081,0.00355663,0.02053546,-0.99978280
1314274904.40445280,0.00350503,0.02058389,-0.99978199
1314274904.45620394,0.00354834,0.02055772,-0.99978237
1314274904.50444221,0.00376451,0.02066775,-0.99977931
1314274904.55642772,0.00356791,0.02061027,-0.99978122
1314274904.60447502,0.00335886,0.02081384,-0.99977773
1314274904.65648222,0.00326181,0.02079385,-0.99977846
1314274904.70457578,0.00334596,0.02075871,-0.99977892
1314274904.75545692,0.00354681,0.02064189,-0.99978064
1314274904.80442810,0.00370753,0.02043452,-0.99978432
1314274904.85544229,0.00349456,0.02046011,-0.99978456
1314274904.90561080,0.00330778,0.02032783,-0.99978790
1314274904.95658183,0.00330122,0.02022218,-0.99979006
1314274905.00448084,0.00318693,0.02024061,-0.99979006
1314274905.05647349,0.00295201,0.02003426,-0.99979494
1314274905.10391879,0.00288547,0.02014736,-0.99979286
1314274905.15558481,0.00307545,0.02008698,-0.99979351
1314274905.20443726,0.00293036,0.02035483,-0.99978852
1314274905.25659084,0.00298423,0.02024063,-0.99979068
1314274905.30629325,0.00267201,0.02021328,-0.99979212
1314274905.35647464,0.00241952,0.02021966,-0.99979263
1314274905.40639591,0.00258112,0.02016048,-0.99979343
1314274905.45645928,0.00265850,0.02041504,-0.99978806
1314274905.50441432,0.00255442,0.02034026,-0.99978985
1314274905.55547905,0.00252491,0.02025695,-0.99979162
1314274905.60443783,0.00273709,0.02015001,-0.99979322
1314274905.65659404,0.00276332,0.02001949,-0.99979577
1314274905.70854855,0.00265651,0.01993957,-0.99979766
1314274905.75645423,0.00268732,0.02002699,-0.99979583
1314274905.80900168,0.00253552,0.01992904,-0.99979818
1314274905.85648036,0.00236935,0.01984678,-0.99980023
1314274905.90845323,0.00212120,0.01968723,-0.99980394
1314274905.95576620,0.00216430,0.01992260,-0.99979918
1314274906.01162720,0.00234988,0.01969108,-0.99980335
1314274906.05648494,0.00245410,0.01975870,-0.99980177
1314274906.10762262,0.00262650,0.01969152,-0.99980265
1314274906.15573001,0.00255709,0.01974134,-0.99980185
1314274906.20853162,0.00256184,0.01981930,-0.99980030
1314274906.25650907,0.00240813,0.01976401,-0.99980177
1314274906.30452442,0.00237379,0.01980420,-0.99980106
1314274906.35550189,0.00244493,0.01965905,-0.99980375
1314274906.40446520,0.00240330,0.01950137,-0.99980694
1314274906.45812750,0.00223135,0.01951792,-0.99980702
1314274906.50456166,0.00218295,0.01952145,-0.99980706
1314274906.55646968,0.00198256,0.01963036,-0.99980534
1314274906.60450387,0.00202508,0.01978412,-0.99980222
1314274906.65646720,0.00223207,0.01969878,-0.99980347
1314274906.70879221,0.00223222,0.01954341,-0.99980652
1314274906.75830317,0.00218446,0.01951728,-0.99980713
1314274906.80451584,0.00232839,0.01939215,-0.99980924
1314274906.85738373,0.00234614,0.01925155,-0.99981192
1314274906.90750718,0.00241087,0.01933330,-0.99981019
1314274906.95848203,0.00239600,0.01945714,-0.99980782
1314274907.00745606,0.00256452,0.01954562,-0.99980568
1314274907.05650473,0.00249345,0.01937515,-0.99980917
1314274907.10828424,0.00241945,0.01933450,-0.99981014
1314274907.15551925,0.00260825,0.01941886,-0.99980803
1314274907.20468760,0.00236771,0.01945214,-0.99980799
1314274907.25565028,0.00235040,0.01975635,-0.99980206
1314274907.30757380,0.00232211,0.01969394,-0.99980336
1314274907.35646343,0.00204410,0.01960159,-0.99980578
1314274907.40714788,0.00227475,0.01980635,-0.99980125
1314274907.45646763,0.00232565,0.01978281,-0.99980160
1314274907.50769401,0.00230955,0.01987628,-0.99979978
1314274907.55557084,0.00219317,0.01986172,-0.99980033
1314274907.60479546,0.00205276,0.01979037,-0.99980204
1314274907.65648818,0.00230682,0.01978226,-0.99980165
1314274907.70854568,0.00225020,0.01987324,-0.99979998
1314274907.75645518,0.00236640,0.01983643,-0.99980044
1314274907.80852985,0.00237419,0.01999020,-0.99979736
1314274907.85644794,0.00246520,0.02019826,-0.99979296
1314274907.90465665,0.00264465,0.02022327,-0.99979199
1314274907.95607948,0.00245689,0.02000228,-0.99979692
1314274908.00446153,0.00214568,0.02007385,-0.99979620
1314274908.05597901,0.00231422,0.01992335,-0.99979883
1314274908.10859060,0.00226903,0.01991285,-0.99979914
1314274908.15664577,0.00215624,0.01976907,-0.99980225
1314274908.20762062,0.00232889,0.01980551,-0.99980114
1314274908.25648642,0.00232187,0.01992906,-0.99979870
1314274908.29596758,0.00252109,0.01963631,-0.99980401
1314274908.35658216,0.00235003,0.01964450,-0.99980427
1314274908.40464973,0.00223982,0.01937313,-0.99980981
1314274908.45658493,0.00210091,0.01924308,-0.99981263
1314274908.50845218,0.00217919,0.01928880,-0.99981158
1314274908.55646396,0.00226208,0.01932287,-0.99981074
1314274908.60860181,0.00225660,0.01937593,-0.99980972
1314274908.65648103,0.00244238,0.01957745,-0.99980536
1314274908.70444608,0.00246383,0.01971212,-0.99980266
1314274908.75592375,0.00268734,0.01967171,-0.99980288
1314274908.80442548,0.00252931,0.01933182,-0.99980992
1314274908.85580921,0.00243151,0.01937853,-0.99980926
1314274908.90769315,0.00245996,0.01954939,-0.99980587
1314274908.95648694,0.00260118,0.01945756,-0.99980730
1314274909.01144147,0.00258676,0.01929560,-0.99981048
1314274909.05646205,0.00272435,0.01937167,-0.99980864
1314274909.10848045,0.00270325,0.01939518,-0.99980824
1314274909.15557814,0.00269275,0.01922330,-0.99981159
1314274909.20751476,0.00279788,0.01919898,-0.99981177
1314274909.25660539,0.00281768,0.01933781,-0.99980904
1314274909.30855966,0.00277297,0.01933479,-0.99980922
1314274909.35643387,0.00296781,0.01929422,-0.99980944
1314274909.40857434,0.00277041,0.01913883,-0.99981300
1314274909.45646882,0.00260635,0.01897140,-0.99981663
1314274909.50932431,0.00254293,0.01884235,-0.99981923
1314274909.55802202,0.00236743,0.01882656,-0.99981996
1314274909.60466552,0.00205074,0.01875992,-0.99982191
1314274909.65652013,0.00221638,0.01844347,-0.99982745
1314274909.70872283,0.00220572,0.01820122,-0.99983191
1314274909.75646973,0.00235997,0.01823548,-0.99983093
1314274909.80455756,0.00203458,0.01823910,-0.99983158
1314274909.85646415,0.00216618,0.01811716,-0.99983352
1314274909.90453362,0.00197206,0.01817172,-0.99983294
1314274909.95643878,0.00176110,0.01824449,-0.99983200
1314274910.00443792,0.00129546,0.01805379,-0.99983618
1314274910.05646157,0.00109789,0.01783960,-0.99984026
1314274910.10426426,0.00119980,0.01791930,-0.99983872
1314274910.15646696,0.00111726,0.01791063,-0.99983897
1314274910.20428395,0.00108224,0.01795848,-0.99983815
1314274910.25646305,0.00104482,0.01809645,-0.99983570
1314274910.30431533,0.00102471,0.01815669,-0.99983463
1314274910.35557985,0.00099932,0.01813272,-0.99983509
1314274910.40810275,0.00088295,0.01826550,-0.99983278
1314274910.45546246,0.00121872,0.01827480,-0.99983226
1314274910.50416327,0.00108674,0.01831622,-0.99983165
1314274910.55654097,0.00113351,0.01839581,-0.99983014
1314274910.60849428,0.00108636,0.01822013,-0.99983341
1314274910.65648937,0.00099630,0.01809155,-0.99983584
1314274910.70413733,0.00099004,0.01819045,-0.99983405
1314274910.75648737,0.00119088,0.01833034,-0.99983128
1314274910.80466104,0.00125997,0.01827414,-0.99983222
1314274910.85599899,0.00123195,0.01813754,-0.99983474
1314274910.90796733,0.00113190,0.01820830,-0.99983357
1314274910.95945287,0.00090808,0.01799815,-0.99983761
1314274911.00411153,0.00100754,0.01816726,-0.99983445
1314274911.05658484,0.00092910,0.01806344,-0.99983641
1314274911.10444951,0.00099030,0.01782313,-0.99984066
1314274911.15655327,0.00122118,0.01772844,-0.99984209
1314274911.20467353,0.00107489,0.01788644,-0.99983945
1314274911.25596857,0.00115133,0.01791240,-0.99983890
1314274911.30858135,0.00121325,0.01797124,-0.99983777
1314274911.35647035,0.00107509,0.01804929,-0.99983652
1314274911.40757084,0.00115948,0.01799864,-0.99983734
1314274911.45646143,0.00131242,0.01776144,-0.99984139
1314274911.50394988,0.00127915,0.01751825,-0.99984573
1314274911.55596519,0.00107685,0.01757950,-0.99984489
1314274911.60475445,0.00104064,0.01748957,-0.99984650
1314274911.65557313,0.00101155,0.01744240,-0.99984736
1314274911.70783162,0.00125959,0.01734683,-0.99984874
1314274911.75646615,0.00133824,0.01747879,-0.99984634
1314274911.80747938,0.00137860,0.01762211,-0.99984377
1314274911.85648012,0.00156068,0.01753891,-0.99984496
1314274911.90843916,0.00175836,0.01736777,-0.99984762
1314274911.95549083,0.00187937,0.01745191,-0.99984594
1314274912.00843573,0.00193261,0.01752143,-0.99984462
1314274912.05545998,0.00198905,0.01741925,-0.99984629
1314274912.10761046,0.00210718,0.01732076,-0.99984776
1314274912.15645409,0.00204400,0.01717174,-0.99985047
1314274912.20760250,0.00187927,0.01718836,-0.99985050
1314274912.25647736,0.00205778,0.01737384,-0.99984695
1314274912.30748558,0.00213786,0.01702392,-0.99985280
1314274912.35559201,0.00245193,0.01718477,-0.99984932
1314274912.41055322,0.00252764,0.01732824,-0.99984666
1314274912.45548081,0.00293767,0.01716465,-0.99984836
1314274912.50755310,0.00325251,0.01723176,-0.99984623
1314274912.55656719,0.00313951,0.01735046,-0.99984454
1314274912.60854816,0.00345442,0.01752479,-0.99984046
1314274912.65660667,0.00350289,0.01730016,-0.99984420
1314274912.70440865,0.00355166,0.01738576,-0.99984255
1314274912.75547361,0.00350234,0.01734168,-0.99984349
1314274912.80446506,0.00391779,0.01722681,-0.99984393
1314274912.85643554,0.00386365,0.01744180,-0.99984042
1314274912.90450168,0.00394726,0.01743172,-0.99984026
1314274912.95462871,0.00406348,0.01749252,-0.99983874
1314274913.00450253,0.00396976,0.01719430,-0.99984429
1314274913.05646586,0.00418818,0.01711907,-0.99984469
1314274913.10743618,0.00432814,0.01696254,-0.99984676
1314274913.15565300,0.00421831,0.01697746,-0.99984697
1314274913.20441794,0.00440673,0.01690513,-0.99984739
1314274913.25545335,0.00450187,0.01678770,-0.99984894
1314274913.31157088,0.00472670,0.01686085,-0.99984667
1314274913.35645843,0.00440400,0.01704418,-0.99984504
1314274913.40757322,0.00413874,0.01689442,-0.99984871
1314274913.45647526,0.00404215,0.01684300,-0.99984998
1314274913.50446129,0.00410030,0.01645073,-0.99985627
1314274913.55556083,0.00389256,0.01647873,-0.99985664
1314274913.60442185,0.00389839,0.01657416,-0.99985504
1314274913.65613031,0.00366034,0.01624508,-0.99986134
1314274913.70416188,0.00351512,0.01635334,-0.99986010
1314274913.75645065,0.00355064,0.01603661,-0.99986510
1314274913.80848956,0.00340466,0.01621537,-0.99986273
1314274913.85645342,0.00334504,0.01636079,-0.99986056
1314274913.90447068,0.00357993,0.01601594,-0.99986533
1314274913.95560718,0.00366775,0.01613231,-0.99986314
1314274914.00444889,0.00386956,0.01603814,-0.99986389
1314274914.05658412,0.00391452,0.01614319,-0.99986203
1314274914.10745287,0.00408621,0.01597491,-0.99986404
1314274914.15647292,0.00427092,0.01585789,-0.99986513
1314274914.20858788,0.00418243,0.01574375,-0.99986731
1314274914.25647902,0.00431777,0.01572024,-0.99986711
1314274914.30746555,0.00428406,0.01563734,-0.99986855
1314274914.35599136,0.00437025,0.01563693,-0.99986818
1314274914.40441847,0.00423470,0.01571940,-0.99986748
1314274914.45653415,0.00428938,0.01565662,-0.99986823
1314274914.50757933,0.00431460,0.01567172,-0.99986788
1314274914.55573773,0.00436295,0.01571507,-0.99986699
1314274914.60372472,0.00415591,0.01567985,-0.99986843
1314274914.65648413,0.00415394,0.01564589,-0.99986897
1314274914.70772433,0.00405914,0.01573050,-0.99986803
1314274914.75658703,0.00390888,0.01572258,-0.99986875
1314274914.80843496,0.00380625,0.01558329,-0.99987133
1314274914.85653162,0.00385131,0.01556362,-0.99987146
1314274914.90759993,0.00371249,0.01566129,-0.99987046
1314274914.95646477,0.00382391,0.01572528,-0.99986904
1314274915.00745773,0.00386573,0.01573327,-0.99986875
1314274915.05646110,0.00400761,0.01575333,-0.99986788
1314274915.10849166,0.00416586,0.01560166,-0.99986961
1314274915.15552664,0.00441199,0.01572304,-0.99986665
1314274915.20841980,0.00449683,0.01557549,-0.99986858
1314274915.25570107,0.00451812,0.01531504,-0.99987251
1314274915.30859113,0.00446786,0.01540172,-0.99987140
1314274915.35645652,0.00444295,0.01529098,-0.99987321
1314274915.40762711,0.00461797,0.01523527,-0.99987327
1314274915.45647240,0.00457423,0.01530116,-0.99987247
1314274915.50742888,0.00472176,0.01551880,-0.99986843
1314274915.55544353,0.00446000,0.01548097,-0.99987022
1314274915.60457182,0.00443045,0.01547949,-0.99987037
1314274915.65644026,0.00460714,0.01561247,-0.99986750
1314274915.70446563,0.00446736,0.01555646,-0.99986901
1314274915.75448155,0.00440008,0.01533660,-0.99987271
1314274915.80746078,0.00431577,0.01541937,-0.99987180
1314274915.85671473,0.00435336,0.01525067,-0.99987422
1314274915.90430045,0.00418887,0.01531622,-0.99987393
1314274915.95647907,0.00427179,0.01518428,-0.99987559
1314274916.00443769,0.00426206,0.01534825,-0.99987313
1314274916.05631709,0.00434155,0.01523397,-0.99987453
1314274916.10751081,0.00415306,0.01502942,-0.99987843
1314274916.15645838,0.00425026,0.01509932,-0.99987697
1314274916.20750976,0.00433168,0.01516258,-0.99987566
1314274916.25646830,0.00455693,0.01487462,-0.99987898
1314274916.30845976,0.00448169,0.01490599,-0.99987886
1314274916.35559487,0.00447852,0.01502266,-0.99987712
1314274916.40416169,0.00453887,0.01505506,-0.99987636
1314274916.45617986,0.00448779,0.01489586,-0.99987898
1314274916.50446510,0.00440042,0.01506749,-0.99987680
1314274916.55438447,0.00431210,0.01497648,-0.99987855
1314274916.60448861,0.00424224,0.01489779,-0.99988002
1314274916.65648198,0.00459034,0.01480603,-0.99987985
1314274916.70444989,0.00458885,0.01471673,-0.99988117
1314274916.75659275,0.00459339,0.01463110,-0.99988241
1314274916.80441999,0.00451523,0.01437086,-0.99988654
1314274916.85659647,0.00441295,0.01457958,-0.99988397
1314274916.90747905,0.00441023,0.01463097,-0.99988324
1314274916.95649123,0.00431979,0.01448716,-0.99988572
1314274917.00405765,0.00411737,0.01463873,-0.99988437
1314274917.05650377,0.00406588,0.01460917,-0.99988501
1314274917.10847664,0.00399249,0.01487083,-0.99988145
1314274917.15659165,0.00420357,0.01488825,-0.99988033
1314274917.20446062,0.00432901,0.01497432,-0.99987851
1314274917.25602245,0.00415794,0.01499476,-0.99987893
1314274917.30393219,0.00424231,0.01485175,-0.99988071
1314274917.35644150,0.00412210,0.01481502,-0.99988175
1314274917.40390921,0.00390126,0.01473203,-0.99988387
1314274917.45645666,0.00389339,0.01487265,-0.99988182
1314274917.50441241,0.00392179,0.01491495,-0.99988107
1314274917.55660200,0.00386683,0.01497849,-0.99988034
1314274917.60844851,0.00378617,0.01519835,-0.99987733
1314274917.65657496,0.00388704,0.01512372,-0.99987807
1314274917.70746398,0.00403003,0.01520904,-0.99987621
1314274917.75513291,0.00397992,0.01531394,-0.99987481
1314274917.80787396,0.00385899,0.01549629,-0.99987248
1314274917.85647583,0.00392728,0.01556296,-0.99987118
1314274917.90766883,0.00404758,0.01552140,-0.99987134
1314274917.95559621,0.00392854,0.01563766,-0.99987001
1314274918.00901771,0.00396379,0.01563358,-0.99986993
1314274918.05659604,0.00388876,0.01565368,-0.99986991
1314274918.10859942,0.00403709,0.01549293,-0.99987183
1314274918.15646839,0.00423518,0.01521252,-0.99987531
1314274918.20859814,0.00421188,0.01523440,-0.99987508
1314274918.25648069,0.00439711,0.01531674,-0.99987302
1314274918.30848980,0.00418945,0.01524873,-0.99987495
1314274918.35657477,0.00412541,0.01539650,-0.99987296
1314274918.40442896,0.00411386,0.01513313,-0.99987702
1314274918.45548654,0.00419980,0.01530786,-0.99987401
1314274918.50748444,0.00417401,0.01526524,-0.99987477
1314274918.55645967,0.00404655,0.01523862,-0.99987570
1314274918.60850620,0.00396595,0.01518614,-0.99987682
1314274918.65650558,0.00407276,0.01502184,-0.99987887
1314274918.70854521,0.00392603,0.01496406,-0.99988032
1314274918.75551343,0.00389138,0.01478197,-0.99988317
1314274918.80453157,0.00404895,0.01485658,-0.99988144
1314274918.85548854,0.00403612,0.01509662,-0.99987789
1314274918.90850163,0.00412134,0.01498915,-0.99987916
1314274918.95645261,0.00428135,0.01500220,-0.99987829
1314274919.00456882,0.00429133,0.01484467,-0.99988060
1314274919.05647016,0.00461600,0.01516529,-0.99987435
1314274919.10852051,0.00453377,0.01481290,-0.99988000
1314274919.15650582,0.00445508,0.01479556,-0.99988061
1314274919.20447326,0.00459333,0.01483034,-0.99987947
1314274919.25669909,0.00431653,0.01479462,-0.99988124
1314274919.30748034,0.00426576,0.01484641,-0.99988069
1314274919.35657692,0.00422978,0.01468406,-0.99988324
1314274919.40445447,0.00427465,0.01452547,-0.99988536
1314274919.45647144,0.00440617,0.01471109,-0.99988208
1314274919.50444436,0.00438577,0.01465474,-0.99988299
1314274919.55591011,0.00445622,0.01461562,-0.99988326
1314274919.60442472,0.00427290,0.01463067,-0.99988384
1314274919.65651417,0.00439276,0.01469026,-0.99988244
1314274919.70756149,0.00467816,0.01473329,-0.99988052
1314274919.75646877,0.00472335,0.01452634,-0.99988333
1314274919.80757117,0.00468209,0.01430899,-0.99988666
1314274919.85647774,0.00474100,0.01432678,-0.99988613
1314274919.90405273,0.00465932,0.01440941,-0.99988532
1314274919.95554757,0.00452865,0.01424403,-0.99988829
1314274920.00625682,0.00463153,0.01392874,-0.99989226
1314274920.05592108,0.00449258,0.01414527,-0.99988986
1314274920.10791612,0.00454618,0.01405692,-0.99989086
1314274920.15649343,0.00467441,0.01406034,-0.99989022
1314274920.20795345,0.00481783,0.01403849,-0.99988985
1314274920.25645900,0.00502005,0.01386737,-0.99989124
1314274920.30789852,0.00488581,0.01387650,-0.99989178
1314274920.35646415,0.00479689,0.01391976,-0.99989161
1314274920.40440607,0.00466316,0.01377250,-0.99989428
1314274920.45544791,0.00487649,0.01373015,-0.99989385
1314274920.50744271,0.00480945,0.01392313,-0.99989150
1314274920.55645990,0.00464508,0.01389059,-0.99989273
1314274920.60747933,0.00483462,0.01383360,-0.99989262
1314274920.65645742,0.00489777,0.01389041,-0.99989153
1314274920.70842266,0.00492884,0.01392502,-0.99989089
1314274920.75661397,0.00506815,0.01378557,-0.99989213
1314274920.80884337,0.00498596,0.01384675,-0.99989170
1314274920.85577559,0.00480409,0.01370837,-0.99989450
1314274920.90759706,0.00485109,0.01367567,-0.99989472
1314274920.95646071,0.00503400,0.01362330,-0.99989453
1314274921.00859714,0.00509242,0.01359884,-0.99989456
1314274921.05646539,0.00523279,0.01371411,-0.99989226
1314274921.10748029,0.00500250,0.01387340,-0.99989125
1314274921.15577173,0.00476506,0.01396675,-0.99989111
1314274921.20841956,0.00490618,0.01397984,-0.99989024
1314274921.25643277,0.00496995,0.01421936,-0.99988655
1314274921.30751467,0.00511543,0.01422854,-0.99988568
1314274921.35644341,0.00539341,0.01446647,-0.99988081
